Weather observations for the past three days for
Raton Municipal - Crews Field Airport
Imperial (Metric)
Date Time (mdt) Wind (mph) Vis. (mi.) Weather Sky Cond. Temperature (ºF) Relative Humidity Wind Chill (°F) Heat Index (°F) Pressure Precipitation (in)
Air Dwpt 6 hour altimeter (in) sea level (mb) 1 hr 3 hr 6 hr
Max. Min.
18 23:53 N 20 G 28 10.00 Fair CLR 63 39.9 87.1 63 43% 30.1 1009.2
18 22:53 N 20 G 31 10.00 Fair CLR 68 45 44% 30.06 1007.6
18 21:53 N 22 G 37 10.00 Fair and Breezy CLR 71.1 44.1 38% 30.03 1006.4
18 20:53 N 14 G 22 10.00 Fair CLR 75 41 29% 77 29.97 1004.4
18 19:53 S 9 10.00 Fair CLR 78.1 34 20% 77 29.93 1003.0
18 18:53 W 8 10.00 Fair CLR 84.9 30.9 14% 82 29.9 1001.8
18 17:53 SW 10 10.00 Fair CLR 87.1 27 88 81 11% 84 29.89 1002.3
18 16:53 SW 13 G 23 10.00 Fair CLR 87.1 27 11% 84 29.89 1002.2
18 15:53 W 14 G 23 10.00 Fair CLR 88 28 11% 84 29.89 1002.3
18 14:53 W 15 G 21 10.00 Fair CLR 84 27 12% 81 29.9 1003.1
18 13:53 SW 18 G 26 10.00 Light Rain CLR 87.1 24.1 10% 84 29.89 1002.0
18 12:53 SW 14 G 23 10.00 Fair CLR 87.1 27 11% 84 29.89 1002.1
18 11:53 S 6 10.00 Fair CLR 82 28.9 82.9 54 14% 80 29.9 1002.1
18 10:53 S 9 10.00 Fair CLR 79 28.9 16% 78 29.9 1002.3
18 09:53 Calm 10.00 Fair CLR 77 28.9 17% 77 29.89 1002.3
18 08:53 S 5 10.00 Fair CLR 72 33.1 24% 29.89 1002.5
18 07:53 S 3 10.00 Fair CLR 69.1 30 23% 29.87 1000.9
18 06:53 Calm 10.00 Fair CLR 64 35.1 34% 29.86 1000.3
18 05:53 Calm 10.00 Fair CLR 55 28.9 64.9 53.1 37% 29.83 1000.1
18 04:53 NE 7 10.00 Fair CLR 55 28.9 37% 29.81 999.2
18 03:53 NE 8 10.00 Fair CLR 55.9 30 37% 29.79 998.3
18 02:53 N 7 10.00 Fair CLR 54 30.9 42% 29.77 998.0
18 01:53 NE 7 10.00 Fair CLR 55.9 33.1 42% 29.76 997.4
18 00:53 W 5 10.00 Fair CLR 57 30.9 37% 29.76 997.3
17 23:53 S 7 10.00 Fair CLR 64 28.9 88 63 27% 29.76 996.7
17 22:53 S 6 10.00 Fair CLR 64 30.9 29% 29.76 997.5
17 21:53 W 9 10.00 Fair CLR 64.9 32 29% 29.76 997.9
17 20:53 SW 9 10.00 Fair CLR 66.9 33.1 29% 29.75 997.8
17 19:53 SW 14 10.00 Fair CLR 79 27 15% 78 29.74 996.4
17 18:53 SW 16 G 35 10.00 Fair CLR 86 26.1 11% 83 29.73 995.4
17 17:53 SW 24 G 40 10.00 Fair and Breezy CLR 88 23 91 86 9% 84 29.71 994.9
17 16:53 SW 29 G 39 10.00 Fair and Windy CLR 91 21 8% 87 29.72 994.9
17 15:53 SW 21 G 35 10.00 Fair and Breezy CLR 90 25 9% 86 29.74 995.8
17 14:53 SW 20 G 31 10.00 Fair CLR 90 25 9% 86 29.75 996.6
17 13:53 SW 15 G 26 10.00 Fair CLR 90 30 12% 86 29.78 996.7
17 12:53 SW 18 G 25 10.00 Fair CLR 89.1 32 13% 85 29.81 998.0
17 11:53 SW 14 G 23 10.00 Fair CLR 86 37.9 86 61 18% 83 29.83 998.9
17 10:53 S 13 10.00 Fair CLR 82 42.1 24% 80 29.86 1000.2
17 09:53 S 6 10.00 Fair CLR 77 48 36% 78 29.87 1001.0
17 08:53 SW 7 10.00 Fair CLR 73 55.9 55% 29.89 1001.6
17 07:53 S 5 10.00 Fair CLR 69.1 55.9 63% 29.9 1001.1
17 06:53 W 5 10.00 Fair CLR 66 55.9 70% 29.9 1001.5
17 05:53 SW 3 10.00 Fair CLR 63 53.1 68 59 70% 29.88 1000.9
17 04:53 S 7 10.00 Fair CLR 63 54 73% 29.89 1000.6
17 03:53 Calm 10.00 Fair CLR 62.1 53.1 73% 29.9 1001.1
17 02:53 Calm 10.00 Fair CLR 60.1 51.1 72% 29.9 1001.4
17 01:53 S 5 10.00 Fair CLR 66 48.9 54% 29.91 1001.5
17 00:53 SE 7 10.00 Fair CLR 64 46 52% 29.93 1002.3
16 23:53 SW 12 10.00 Fair CLR 68 45 90 66 44% 29.92 1002.0
16 22:53 SW 8 10.00 Fair CLR 66.9 44.1 44% 29.92 1002.7
16 21:53 SW 12 10.00 Fair CLR 71.1 45 39% 29.9 1002.2
16 20:53 SW 9 10.00 Fair CLR 73.9 44.1 34% 29.87 1001.6
16 19:53 S 22 G 31 10.00 Fair and Breezy CLR 84 39.9 21% 81 29.85 1000.1
16 18:53 SW 18 G 28 10.00 Fair CLR 84.9 35.1 17% 82 29.83 1000.4
16 17:53 SW 20 G 29 10.00 Fair CLR 89.1 37.9 93 84.9 16% 85 29.84 1000.7
16 16:53 SW 15 G 26 10.00 Fair CLR 93 37 14% 89 29.85 1000.6
16 15:53 S 12 10.00 Fair CLR 91 37.9 15% 87 29.88 1001.6
16 14:53 S 7 G 20 10.00 Fair CLR 91 36 14% 87 29.9 1002.5
16 13:53 S 8 10.00 Fair CLR 89.1 36 15% 85 29.93 1003.2
16 12:53 S 17 G 24 10.00 Fair CLR 89.1 37 16% 85 29.95 1003.9
16 11:53 S 9 10.00 Fair CLR 84.9 45 84.9 50 25% 82 29.99 1005.3
16 10:53 SE 6 10.00 Fair CLR 80.1 46.9 31% 79 30.01 1006.4
16 09:53 E 5 10.00 Fair CLR 75 48 39% 77 30.02 1006.9
16 08:53 E 5 10.00 Fair CLR 70 53.1 55% 30.03 1007.7
16 07:53 Calm 10.00 Fair CLR 64 52 65% 30.04 1008.3
16 06:53 NE 5 10.00 Fair CLR 57 48 72% 30.03 1007.5
16 05:53 NE 7 10.00 Fair CLR 50 45 60.1 48.9 83% 48 30.02 1007.6
16 04:53 E 7 10.00 Fair CLR 50 46 86% 48 30.01 1007.2
16 03:53 NE 3 10.00 Fair CLR 52 46.9 83% 30.01 1007.1
16 02:53 NE 5 10.00 Fair CLR 53.1 46.9 80% 30.01 1007.0
16 01:53 N 5 10.00 Fair CLR 57 48.9 74% 30.01 1006.9
16 00:53 N 6 10.00 Fair CLR 59 48.9 69% 30.03 1007.4
Date Time (mdt) Wind (mph) Vis. (mi.) Weather Sky Cond. Air Dwpt Max. Min. Relative Humidity Wind Chill (°F) Heat Index (°F) altimeter (in) sea level (mb) 1 hr 3 hr 6 hr
6 hour
Temperature (ºF) Pressure Precipitation (in)